Powrót do katalogu

THORAD DELTA 1 DEB

AktywnySSO
NORAD 42599·DEBRIS·🇺🇸 United States

Wystrzelony Nov 15, 1974 z Vandenberg Space Force Base

Loading…

Następne Przeloty (najbliższe 24 godziny)

TLE

ŚwieżeSource: Space-Track

Epoka: Sep 14, 2026, 13:38 UTC

1 42599U 74089FQ  26257.56860334  .00000369  00000-0  22683-2 0  9995
2 42599 101.5442 356.0289 0050641 303.7262  67.6159 12.63423233577822

Śledź THORAD DELTA 1 DEB w czasie rzeczywistym z AllMySat

Download on the App Store